Time,TemperatureF,DewpointF,PressureIn,WindDirection,WindDirectionDegrees,WindSpeedMPH,WindSpeedGustMPH,Humidity,HourlyPrecipIn,Conditions,Clouds,dailyrainin,SoftwareType,DateUTC
2013-04-18 00:00:00,51.0,47.9,30.05,NW,322,8.2,9.4,89,0.00,,,0.00,VWS V14.00,2013-04-18 04:00:00,
2013-04-18 00:01:00,41.4,26.1,30.31,ESE,121,0.0,0.0,54,0.00,,,0.00,VWS V14.00,2013-04-18 04:01:00,
2013-04-18 00:02:00,39.3,26.9,30.29,ESE,107,0.0,7.3,61,0.00,,,0.00,VWS V14.00,2013-04-18 04:02:00,
2013-04-18 00:04:00,41.2,26.2,30.31,ESE,121,0.0,7.1,55,0.00,,,0.00,VWS V14.00,2013-04-18 04:04:00,
2013-04-18 00:05:00,39.4,27.0,30.29,SSE,149,3.4,7.3,61,0.00,,,0.00,VWS V14.00,2013-04-18 04:05:00,
2013-04-18 00:08:00,39.1,26.8,30.29,SE,139,3.5,7.3,61,0.00,,,0.00,VWS V14.00,2013-04-18 04:08:00,
2013-04-18 00:10:00,40.8,26.2,30.31,SSE,148,4.4,5.5,56,0.00,,,0.00,VWS V14.00,2013-04-18 04:10:00,
2013-04-18 00:11:00,39.2,27.0,30.29,East,86,3.4,7.8,61,0.00,,,0.00,VWS V14.00,2013-04-18 04:11:00,
2013-04-18 00:13:00,40.6,26.4,30.31,SE,142,4.7,6.1,57,0.00,,,0.00,VWS V14.00,2013-04-18 04:13:00,
2013-04-18 00:14:00,39.1,26.9,30.29,ESE,121,0.0,8.0,61,0.00,,,0.00,VWS V14.00,2013-04-18 04:14:00,
2013-04-18 00:16:00,40.5,26.5,30.31,SSE,149,3.3,6.1,57,0.00,,,0.00,VWS V14.00,2013-04-18 04:16:00,
2013-04-18 00:17:00,39.0,26.9,30.29,ESE,122,2.6,8.0,62,0.00,,,0.00,VWS V14.00,2013-04-18 04:17:00,
2013-04-18 00:20:00,39.1,27.1,30.29,East,93,2.8,8.0,62,0.00,,,0.00,VWS V14.00,2013-04-18 04:20:00,
2013-04-18 00:22:00,40.0,26.7,30.31,ESE,117,0.0,6.0,59,0.00,,,0.00,VWS V14.00,2013-04-18 04:22:00,
2013-04-18 00:23:00,39.0,26.9,30.29,East,83,0.0,8.0,62,0.00,,,0.00,VWS V14.00,2013-04-18 04:23:00,
2013-04-18 00:26:00,39.0,27.0,30.29,South,186,5.7,8.0,62,0.00,,,0.00,VWS V14.00,2013-04-18 04:26:00,
2013-04-18 00:28:00,39.7,26.9,30.32,SE,141,5.2,5.8,60,0.00,,,0.00,VWS V14.00,2013-04-18 04:28:00,
2013-04-18 00:29:00,38.9,27.0,30.29,East,100,0.0,8.0,62,0.00,,,0.00,VWS V14.00,2013-04-18 04:29:00,
2013-04-18 00:30:00,49.3,44.3,30.06,NNW,335,4.5,9.2,83,0.00,,,0.00,VWS V14.00,2013-04-18 04:30:00,
2013-04-18 00:32:00,38.9,26.9,30.29,East,100,0.0,8.0,62,0.00,,,0.00,VWS V14.00,2013-04-18 04:32:00,
2013-04-18 00:35:00,39.5,26.9,30.31,South,177,6.0,8.4,60,0.00,,,0.00,VWS V14.00,2013-04-18 04:35:00,
2013-04-18 00:38:00,39.0,27.0,30.29,ESE,105,0.0,8.0,62,0.00,,,0.00,VWS V14.00,2013-04-18 04:38:00,
2013-04-18 00:40:00,48.8,43.6,30.07,NNW,329,5.8,7.5,82,0.00,,,0.00,VWS V14.00,2013-04-18 04:40:00,
2013-04-18 00:41:00,39.6,26.9,30.30,SE,129,0.0,8.2,60,0.00,,,0.00,VWS V14.00,2013-04-18 04:41:00,
2013-04-18 00:44:00,39.0,27.1,30.29,SE,125,0.0,9.5,62,0.00,,,0.00,VWS V14.00,2013-04-18 04:44:00,
2013-04-18 00:46:00,39.6,26.9,30.30,SE,145,4.7,8.2,60,0.00,,,0.00,VWS V14.00,2013-04-18 04:46:00,
2013-04-18 00:47:00,39.1,27.1,30.28,SSE,159,0.0,9.5,62,0.00,,,0.00,VWS V14.00,2013-04-18 04:47:00,
2013-04-18 00:50:00,39.2,27.1,30.29,SSE,159,0.0,9.5,62,0.00,,,0.00,VWS V14.00,2013-04-18 04:50:00,
2013-04-18 00:53:00,39.5,27.0,30.29,SE,128,0.0,6.1,60,0.00,,,0.00,VWS V14.00,2013-04-18 04:53:00,
2013-04-18 00:54:00,39.3,27.1,30.28,ESE,111,3.2,9.5,61,0.00,,,0.00,VWS V14.00,2013-04-18 04:54:00,
2013-04-18 00:57:00,39.4,27.1,30.28,SE,132,3.0,9.5,61,0.00,,,0.00,VWS V14.00,2013-04-18 04:57:00,
2013-04-18 01:00:00,39.4,27.1,30.28,East,96,0.0,9.5,61,0.00,,,0.00,VWS V14.00,2013-04-18 05:00:00,
2013-04-18 01:03:00,39.3,27.1,30.28,ESE,114,3.2,9.5,61,0.00,,,0.00,VWS V14.00,2013-04-18 05:03:00,
2013-04-18 01:06:00,39.3,27.2,30.27,SE,124,4.5,9.9,62,0.00,,,0.00,VWS V14.00,2013-04-18 05:06:00,
2013-04-18 01:09:00,39.4,27.2,30.27,SE,139,5.0,9.9,61,0.00,,,0.00,VWS V14.00,2013-04-18 05:09:00,
2013-04-18 01:12:00,39.2,26.9,30.27,East,80,0.0,9.9,61,0.00,,,0.00,VWS V14.00,2013-04-18 05:12:00,
2013-04-18 01:15:00,39.5,27.1,30.27,SE,132,3.1,9.9,61,0.00,,,0.00,VWS V14.00,2013-04-18 05:15:00,
2013-04-18 01:18:00,39.3,27.0,30.27,East,101,2.6,9.9,61,0.00,,,0.00,VWS V14.00,2013-04-18 05:18:00,
2013-04-18 01:21:00,39.2,26.9,30.28,East,94,0.0,9.9,61,0.00,,,0.00,VWS V14.00,2013-04-18 05:21:00,
2013-04-18 01:24:00,39.3,27.0,30.27,East,97,5.3,9.9,61,0.00,,,0.00,VWS V14.00,2013-04-18 05:24:00,
2013-04-18 01:27:00,39.2,27.0,30.27,SE,125,0.0,9.9,61,0.00,,,0.00,VWS V14.00,2013-04-18 05:27:00,
2013-04-18 01:30:00,39.1,27.0,30.27,South,180,0.0,9.9,61,0.00,,,0.00,VWS V14.00,2013-04-18 05:30:00,
2013-04-18 01:33:00,39.2,27.1,30.27,ESE,103,0.0,9.9,62,0.00,,,0.00,VWS V14.00,2013-04-18 05:33:00,
2013-04-18 01:36:00,39.0,26.9,30.27,SE,131,0.0,9.9,62,0.00,,,0.00,VWS V14.00,2013-04-18 05:36:00,
2013-04-18 01:39:00,39.1,26.9,30.27,SE,124,0.0,9.9,61,0.00,,,0.00,VWS V14.00,2013-04-18 05:39:00,
2013-04-18 01:42:00,39.2,26.9,30.28,East,100,3.2,9.9,61,0.00,,,0.00,VWS V14.00,2013-04-18 05:42:00,
2013-04-18 01:45:00,39.2,27.0,30.28,East,90,0.0,9.9,61,0.00,,,0.00,VWS V14.00,2013-04-18 05:45:00,
2013-04-18 01:48:00,39.2,26.9,30.28,East,90,0.0,9.9,61,0.00,,,0.00,VWS V14.00,2013-04-18 05:48:00,
2013-04-18 01:51:00,39.1,26.8,30.28,East,90,0.0,9.9,61,0.00,,,0.00,VWS V14.00,2013-04-18 05:51:00,
2013-04-18 01:54:00,39.1,26.9,30.27,East,90,0.0,9.9,61,0.00,,,0.00,VWS V14.00,2013-04-18 05:54:00,
2013-04-18 01:57:00,39.1,26.9,30.28,East,90,0.0,9.9,61,0.00,,,0.00,VWS V14.00,2013-04-18 05:57:00,
2013-04-18 02:00:00,39.0,26.9,30.28,East,90,0.0,9.9,62,0.00,,,0.00,VWS V14.00,2013-04-18 06:00:00,
2013-04-18 02:03:00,38.9,26.9,30.28,East,90,0.0,9.9,62,0.00,,,0.00,VWS V14.00,2013-04-18 06:03:00,
2013-04-18 02:06:00,38.9,26.9,30.28,East,90,0.0,9.9,62,0.00,,,0.00,VWS V14.00,2013-04-18 06:06:00,
2013-04-18 02:09:00,38.8,26.8,30.28,East,90,0.0,9.9,62,0.00,,,0.00,VWS V14.00,2013-04-18 06:09:00,
2013-04-18 02:12:00,38.8,26.9,30.28,East,90,0.0,9.9,62,0.00,,,0.00,VWS V14.00,2013-04-18 06:12:00,
2013-04-18 02:15:00,38.7,26.7,30.29,East,90,0.0,9.9,62,0.00,,,0.00,VWS V14.00,2013-04-18 06:15:00,
2013-04-18 02:18:00,38.7,26.6,30.29,East,90,0.0,9.9,61,0.00,,,0.00,VWS V14.00,2013-04-18 06:18:00,
2013-04-18 02:21:00,38.8,26.7,30.29,East,90,0.0,9.9,62,0.00,,,0.00,VWS V14.00,2013-04-18 06:21:00,
2013-04-18 02:24:00,38.7,26.5,30.28,East,90,0.0,9.9,61,0.00,,,0.00,VWS V14.00,2013-04-18 06:24:00,
2013-04-18 02:27:00,38.8,26.6,30.28,East,90,0.0,9.9,61,0.00,,,0.00,VWS V14.00,2013-04-18 06:27:00,
2013-04-18 02:30:00,38.9,26.9,30.28,East,90,0.0,9.9,62,0.00,,,0.00,VWS V14.00,2013-04-18 06:30:00,
2013-04-18 02:33:00,38.8,26.8,30.29,East,90,0.0,9.9,62,0.00,,,0.00,VWS V14.00,2013-04-18 06:33:00,
2013-04-18 02:36:00,38.7,26.8,30.29,East,90,0.0,9.9,62,0.00,,,0.00,VWS V14.00,2013-04-18 06:36:00,
2013-04-18 02:39:00,38.6,26.8,30.29,East,90,0.0,9.9,62,0.00,,,0.00,VWS V14.00,2013-04-18 06:39:00,
2013-04-18 02:42:00,38.5,26.7,30.29,East,90,0.0,9.9,62,0.00,,,0.00,VWS V14.00,2013-04-18 06:42:00,
2013-04-18 02:45:00,38.4,26.7,30.30,East,90,0.0,9.9,62,0.00,,,0.00,VWS V14.00,2013-04-18 06:45:00,
2013-04-18 02:48:00,38.3,26.6,30.30,East,90,0.0,9.9,62,0.00,,,0.00,VWS V14.00,2013-04-18 06:48:00,
2013-04-18 02:51:00,38.3,26.6,30.29,East,90,0.0,9.9,62,0.00,,,0.00,VWS V14.00,2013-04-18 06:51:00,
2013-04-18 02:54:00,38.4,26.7,30.29,East,90,0.0,9.9,62,0.00,,,0.00,VWS V14.00,2013-04-18 06:54:00,
2013-04-18 02:58:00,38.4,26.9,30.29,ESE,107,2.4,9.9,63,0.00,,,0.00,VWS V14.00,2013-04-18 06:58:00,
2013-04-18 03:01:00,38.3,27.0,30.30,SSE,149,3.1,9.9,63,0.00,,,0.00,VWS V14.00,2013-04-18 07:01:00,
2013-04-18 03:04:00,38.2,27.1,30.30,SSE,149,0.0,9.9,64,0.00,,,0.00,VWS V14.00,2013-04-18 07:04:00,
2013-04-18 03:07:00,38.2,27.2,30.30,SE,141,5.7,9.9,64,0.00,,,0.00,VWS V14.00,2013-04-18 07:07:00,
2013-04-18 03:10:00,38.1,27.1,30.29,SE,136,0.0,9.9,64,0.00,,,0.00,VWS V14.00,2013-04-18 07:10:00,
2013-04-18 03:13:00,38.1,27.2,30.29,SSE,148,0.0,9.9,65,0.00,,,0.00,VWS V14.00,2013-04-18 07:13:00,
2013-04-18 03:16:00,38.0,27.1,30.29,SE,138,2.1,9.9,64,0.00,,,0.00,VWS V14.00,2013-04-18 07:16:00,
2013-04-18 03:19:00,38.0,27.1,30.29,SSE,158,4.7,9.9,65,0.00,,,0.00,VWS V14.00,2013-04-18 07:19:00,
2013-04-18 03:22:00,38.1,27.2,30.29,ESE,115,5.8,9.9,64,0.00,,,0.00,VWS V14.00,2013-04-18 07:22:00,
2013-04-18 03:25:00,38.1,27.2,30.29,SE,139,0.0,9.9,64,0.00,,,0.00,VWS V14.00,2013-04-18 07:25:00,
2013-04-18 03:28:00,38.1,27.1,30.28,SE,145,0.0,9.9,64,0.00,,,0.00,VWS V14.00,2013-04-18 07:28:00,
2013-04-18 03:31:00,38.2,27.3,30.28,ESE,107,3.2,9.9,65,0.00,,,0.00,VWS V14.00,2013-04-18 07:31:00,
2013-04-18 03:34:00,38.1,27.3,30.28,SSE,150,4.4,9.9,65,0.00,,,0.00,VWS V14.00,2013-04-18 07:34:00,
2013-04-18 03:37:00,38.1,27.2,30.28,ESE,103,0.0,9.9,64,0.00,,,0.00,VWS V14.00,2013-04-18 07:37:00,
2013-04-18 03:40:00,38.1,27.0,30.29,SE,124,0.0,9.9,64,0.00,,,0.00,VWS V14.00,2013-04-18 07:40:00,
2013-04-18 03:43:00,38.2,27.1,30.29,ESE,117,2.8,9.9,64,0.00,,,0.00,VWS V14.00,2013-04-18 07:43:00,
2013-04-18 03:49:00,38.3,27.1,30.28,SE,135,0.0,9.9,64,0.00,,,0.00,VWS V14.00,2013-04-18 07:49:00,
2013-04-18 03:55:00,38.4,27.1,30.28,SE,127,0.0,9.9,64,0.00,,,0.00,VWS V14.00,2013-04-18 07:55:00,
2013-04-18 04:01:00,38.1,26.9,30.28,SSE,148,3.4,9.9,64,0.00,,,0.00,VWS V14.00,2013-04-18 08:01:00,
2013-04-18 04:04:00,38.4,27.1,30.28,SE,132,0.0,9.9,64,0.00,,,0.00,VWS V14.00,2013-04-18 08:04:00,
2013-04-18 04:07:00,38.3,27.0,30.28,SE,132,0.0,9.9,63,0.00,,,0.00,VWS V14.00,2013-04-18 08:07:00,
2013-04-18 04:10:00,38.4,27.0,30.29,SE,132,0.0,9.9,63,0.00,,,0.00,VWS V14.00,2013-04-18 08:10:00,
2013-04-18 04:13:00,38.4,27.0,30.28,SE,132,0.0,9.9,63,0.00,,,0.00,VWS V14.00,2013-04-18 08:13:00,
2013-04-18 04:16:00,38.5,27.0,30.28,SE,132,0.0,9.9,63,0.00,,,0.00,VWS V14.00,2013-04-18 08:16:00,
2013-04-18 04:22:00,38.5,26.9,30.28,SE,132,0.0,9.9,63,0.00,,,0.00,VWS V14.00,2013-04-18 08:22:00,
2013-04-18 04:25:00,38.5,26.9,30.28,SE,132,0.0,9.9,63,0.00,,,0.00,VWS V14.00,2013-04-18 08:25:00,
2013-04-18 04:34:00,38.7,27.1,30.27,SE,141,5.9,10.1,63,0.00,,,0.00,VWS V14.00,2013-04-18 08:34:00,
2013-04-18 04:37:00,39.0,27.3,30.27,SE,128,4.6,10.1,62,0.00,,,0.00,VWS V14.00,2013-04-18 08:37:00,
2013-04-18 04:42:00,38.2,27.0,30.29,SE,136,0.0,9.9,64,0.00,,,0.00,VWS V14.00,2013-04-18 08:42:00,
2013-04-18 04:43:00,39.2,27.2,30.27,SE,141,5.4,10.1,62,0.00,,,0.00,VWS V14.00,2013-04-18 08:43:00,
2013-04-18 04:48:00,38.4,27.1,30.28,ESE,122,0.0,9.9,63,0.00,,,0.00,VWS V14.00,2013-04-18 08:48:00,
2013-04-18 04:49:00,39.5,27.0,30.28,SE,138,0.0,10.1,61,0.00,,,0.00,VWS V14.00,2013-04-18 08:49:00,
2013-04-18 04:52:00,39.8,27.1,30.28,SE,139,2.9,10.1,60,0.00,,,0.00,VWS V14.00,2013-04-18 08:52:00,
2013-04-18 04:54:00,38.3,27.2,30.28,SE,127,0.0,9.9,64,0.00,,,0.00,VWS V14.00,2013-04-18 08:54:00,
2013-04-18 04:55:00,40.1,27.0,30.28,SSW,195,4.3,10.1,59,0.00,,,0.00,VWS V14.00,2013-04-18 08:55:00,
2013-04-18 04:58:00,40.3,26.8,30.28,East,84,3.4,10.1,58,0.00,,,0.00,VWS V14.00,2013-04-18 08:58:00,
2013-04-18 05:01:00,40.6,26.9,30.28,ENE,77,0.0,10.1,58,0.00,,,0.00,VWS V14.00,2013-04-18 09:01:00,
2013-04-18 05:08:00,40.8,26.7,30.29,East,97,0.0,10.1,57,0.00,,,0.00,VWS V14.00,2013-04-18 09:08:00,
2013-04-18 05:11:00,41.0,26.7,30.28,NE,53,3.2,10.1,56,0.00,,,0.00,VWS V14.00,2013-04-18 09:11:00,
2013-04-18 05:14:00,41.2,26.8,30.29,ENE,77,3.4,10.1,56,0.00,,,0.00,VWS V14.00,2013-04-18 09:14:00,
2013-04-18 05:15:00,38.4,26.9,30.28,SE,132,0.0,9.9,63,0.00,,,0.00,VWS V14.00,2013-04-18 09:15:00,
2013-04-18 05:23:00,41.3,26.6,30.30,SSE,156,0.0,10.1,56,0.00,,,0.00,VWS V14.00,2013-04-18 09:23:00,
2013-04-18 05:25:00,38.6,27.0,30.27,SSE,166,7.0,9.9,63,0.00,,,0.00,VWS V14.00,2013-04-18 09:25:00,
2013-04-18 05:29:00,41.4,26.5,30.30,East,89,0.0,10.1,55,0.00,,,0.00,VWS V14.00,2013-04-18 09:29:00,
2013-04-18 05:32:00,41.4,26.6,30.29,East,94,3.0,10.1,55,0.00,,,0.00,VWS V14.00,2013-04-18 09:32:00,
2013-04-18 05:37:00,39.1,27.2,30.27,SE,139,3.5,10.1,62,0.00,,,0.00,VWS V14.00,2013-04-18 09:37:00,
2013-04-18 05:43:00,39.4,27.2,30.28,ESE,118,0.0,10.1,61,0.00,,,0.00,VWS V14.00,2013-04-18 09:43:00,
2013-04-18 06:05:00,42.6,26.3,30.31,ESE,105,2.9,10.1,52,0.00,,,0.00,VWS V14.00,2013-04-18 10:05:00,
2013-04-18 06:08:00,42.8,26.3,30.31,ESE,112,0.0,10.8,52,0.00,,,0.00,VWS V14.00,2013-04-18 10:08:00,
2013-04-18 06:13:00,41.2,26.7,30.29,ESE,122,2.8,10.1,56,0.00,,,0.00,VWS V14.00,2013-04-18 10:13:00,
2013-04-18 06:22:00,41.3,26.5,30.30,ENE,59,2.3,10.1,55,0.00,,,0.00,VWS V14.00,2013-04-18 10:22:00,
2013-04-18 06:31:00,41.6,26.8,30.29,SE,127,0.0,10.1,55,0.00,,,0.00,VWS V14.00,2013-04-18 10:31:00,
2013-04-18 06:37:00,41.6,26.7,30.29,ESE,103,0.0,10.1,55,0.00,,,0.00,VWS V14.00,2013-04-18 10:37:00,
2013-04-18 06:43:00,41.7,26.5,30.30,SE,135,0.0,10.1,54,0.00,,,0.00,VWS V14.00,2013-04-18 10:43:00,
2013-04-18 06:49:00,42.0,26.4,30.30,ENE,77,0.0,10.1,54,0.00,,,0.00,VWS V14.00,2013-04-18 10:49:00,
2013-04-18 06:55:00,42.4,26.3,30.31,ENE,77,0.0,10.1,52,0.00,,,0.00,VWS V14.00,2013-04-18 10:55:00,
2013-04-18 07:07:00,43.0,26.5,30.31,ESE,104,6.4,10.8,52,0.00,,,0.00,VWS V14.00,2013-04-18 11:07:00,
2013-04-18 07:13:00,43.3,26.6,30.31,SE,128,3.3,10.8,51,0.00,,,0.00,VWS V14.00,2013-04-18 11:13:00,
2013-04-18 07:19:00,43.7,26.4,30.31,SE,136,3.4,10.8,50,0.00,,,0.00,VWS V14.00,2013-04-18 11:19:00,
2013-04-18 07:25:00,44.1,26.2,30.29,East,83,3.3,10.8,49,0.00,,,0.00,VWS V14.00,2013-04-18 11:25:00,
2013-04-18 07:31:00,44.6,26.1,30.29,SSE,152,4.1,13.4,48,0.00,,,0.00,VWS V14.00,2013-04-18 11:31:00,
2013-04-18 07:38:00,45.1,26.1,30.29,SE,127,0.0,14.9,47,0.00,,,0.00,VWS V14.00,2013-04-18 11:38:00,
2013-04-18 07:44:00,45.5,25.8,30.28,ESE,115,4.7,19.1,46,0.00,,,0.00,VWS V14.00,2013-04-18 11:44:00,
2013-04-18 07:50:00,45.9,25.6,30.28,SSE,158,4.8,19.1,45,0.00,,,0.00,VWS V14.00,2013-04-18 11:50:00,
2013-04-18 07:56:00,46.2,25.3,30.27,NE,45,3.2,19.1,44,0.00,,,0.00,VWS V14.00,2013-04-18 11:56:00,
2013-04-18 08:02:00,46.6,25.3,30.27,ESE,110,9.6,19.1,43,0.00,,,0.00,VWS V14.00,2013-04-18 12:02:00,
2013-04-18 08:08:00,46.8,25.0,30.28,ESE,121,3.3,19.1,42,0.00,,,0.00,VWS V14.00,2013-04-18 12:08:00,
2013-04-18 08:14:00,47.2,25.4,30.28,NE,49,4.7,19.1,42,0.00,,,0.00,VWS V14.00,2013-04-18 12:14:00,
2013-04-18 08:20:00,47.5,25.7,30.28,SE,143,7.7,19.1,42,0.00,,,0.00,VWS V14.00,2013-04-18 12:20:00,
2013-04-18 08:26:00,47.7,25.5,30.28,SE,134,4.8,19.1,42,0.00,,,0.00,VWS V14.00,2013-04-18 12:26:00,
2013-04-18 08:33:00,48.0,25.4,30.28,SE,124,7.5,19.1,41,0.00,,,0.00,VWS V14.00,2013-04-18 12:33:00,
2013-04-18 08:39:00,48.1,25.1,30.28,SE,132,10.4,19.1,40,0.00,,,0.00,VWS V14.00,2013-04-18 12:39:00,
2013-04-18 08:45:00,48.6,25.3,30.28,ESE,114,8.7,19.1,40,0.00,,,0.00,VWS V14.00,2013-04-18 12:45:00,
2013-04-18 08:51:00,48.9,25.3,30.27,NE,56,0.0,19.1,39,0.00,,,0.00,VWS V14.00,2013-04-18 12:51:00,
2013-04-18 08:57:00,48.9,25.1,30.27,SE,131,5.8,19.1,39,0.00,,,0.00,VWS V14.00,2013-04-18 12:57:00,
2013-04-18 09:03:00,48.5,24.9,30.26,ESE,111,6.5,19.1,39,0.00,,,0.00,VWS V14.00,2013-04-18 13:03:00,
2013-04-18 09:09:00,48.3,25.0,30.26,South,170,8.0,19.1,40,0.00,,,0.00,VWS V14.00,2013-04-18 13:09:00,
2013-04-18 09:15:00,48.2,25.0,30.26,ESE,110,7.1,24.5,40,0.00,,,0.00,VWS V14.00,2013-04-18 13:15:00,
2013-04-18 09:21:00,48.3,25.2,30.27,ESE,111,7.2,24.5,40,0.00,,,0.00,VWS V14.00,2013-04-18 13:21:00,
2013-04-18 09:27:00,48.4,25.5,30.27,ESE,110,5.0,24.5,40,0.00,,,0.00,VWS V14.00,2013-04-18 13:27:00,
2013-04-18 09:33:00,48.5,25.8,30.27,SE,129,8.3,24.5,41,0.00,,,0.00,VWS V14.00,2013-04-18 13:33:00,
2013-04-18 09:39:00,48.7,25.9,30.27,East,101,5.4,24.5,41,0.00,,,0.00,VWS V14.00,2013-04-18 13:39:00,
2013-04-18 09:45:00,48.9,26.2,30.26,NE,38,5.5,24.5,41,0.00,,,0.00,VWS V14.00,2013-04-18 13:45:00,
2013-04-18 09:51:00,49.2,26.7,30.27,NNE,15,6.5,24.5,41,0.00,,,0.00,VWS V14.00,2013-04-18 13:51:00,
2013-04-18 09:57:00,49.4,26.9,30.27,East,91,5.9,24.5,41,0.00,,,0.00,VWS V14.00,2013-04-18 13:57:00,
2013-04-18 10:03:00,49.4,27.2,30.26,SSE,150,0.0,24.5,42,0.00,,,0.00,VWS V14.00,2013-04-18 14:03:00,
2013-04-18 10:09:00,49.5,27.8,30.26,NNE,21,7.5,24.5,43,0.00,,,0.00,VWS V14.00,2013-04-18 14:09:00,
2013-04-18 10:15:00,49.6,28.3,30.26,East,93,0.0,24.5,44,0.00,,,0.00,VWS V14.00,2013-04-18 14:15:00,
2013-04-18 10:21:00,49.5,28.5,30.26,SE,146,0.0,24.5,44,0.00,,,0.00,VWS V14.00,2013-04-18 14:21:00,
2013-04-18 10:27:00,49.4,28.8,30.26,SE,138,4.3,24.5,45,0.00,,,0.00,VWS V14.00,2013-04-18 14:27:00,
2013-04-18 10:33:00,49.3,28.9,30.26,ENE,69,7.3,24.5,45,0.00,,,0.00,VWS V14.00,2013-04-18 14:33:00,
2013-04-18 10:39:00,49.1,28.8,30.26,ESE,103,0.0,24.5,45,0.00,,,0.00,VWS V14.00,2013-04-18 14:39:00,
2013-04-18 10:45:00,49.0,28.7,30.26,SE,146,5.5,24.5,45,0.00,,,0.00,VWS V14.00,2013-04-18 14:45:00,
2013-04-18 10:51:00,48.8,28.7,30.26,ESE,115,8.0,24.5,46,0.00,,,0.00,VWS V14.00,2013-04-18 14:51:00,
2013-04-18 10:57:00,48.9,29.1,30.26,SE,134,5.5,24.5,46,0.00,,,0.00,VWS V14.00,2013-04-18 14:57:00,
2013-04-18 11:03:00,48.8,29.6,30.26,SE,135,0.0,24.5,47,0.00,,,0.00,VWS V14.00,2013-04-18 15:03:00,
2013-04-18 11:09:00,48.6,30.1,30.25,SE,128,8.3,24.5,49,0.00,,,0.00,VWS V14.00,2013-04-18 15:09:00,
2013-04-18 11:15:00,48.6,30.8,30.25,SSE,160,6.8,24.5,50,0.00,,,0.00,VWS V14.00,2013-04-18 15:15:00,
2013-04-18 11:21:00,48.3,31.6,30.24,SSE,162,5.5,24.5,52,0.00,,,0.00,VWS V14.00,2013-04-18 15:21:00,
2013-04-18 11:28:00,47.8,33.1,30.25,ESE,110,4.3,24.5,56,0.00,,,0.00,VWS V14.00,2013-04-18 15:28:00,
2013-04-18 11:34:00,47.5,33.1,30.25,East,89,5.2,24.5,57,0.00,,,0.00,VWS V14.00,2013-04-18 15:34:00,
2013-04-18 11:40:00,47.4,33.2,30.24,SE,128,6.0,24.5,58,0.00,,,0.00,VWS V14.00,2013-04-18 15:40:00,
2013-04-18 11:46:00,47.7,32.8,30.24,SE,141,5.8,24.5,56,0.00,,,0.00,VWS V14.00,2013-04-18 15:46:00,
2013-04-18 11:52:00,47.8,32.7,30.23,NNE,25,3.1,24.5,56,0.00,,,0.00,VWS V14.00,2013-04-18 15:52:00,
2013-04-18 11:58:00,48.1,32.9,30.22,SSE,159,5.3,24.5,56,0.00,,,0.00,VWS V14.00,2013-04-18 15:58:00,
2013-04-18 12:04:00,48.5,33.3,30.23,South,181,6.0,24.5,55,0.00,,,0.00,VWS V14.00,2013-04-18 16:04:00,
2013-04-18 12:10:00,48.9,33.2,30.22,NE,48,0.0,24.5,54,0.00,,,0.00,VWS V14.00,2013-04-18 16:10:00,
2013-04-18 12:16:00,49.3,33.4,30.22,ESE,104,3.0,24.5,54,0.00,,,0.00,VWS V14.00,2013-04-18 16:16:00,
2013-04-18 12:22:00,49.5,33.7,30.22,SE,124,8.1,24.5,54,0.00,,,0.00,VWS V14.00,2013-04-18 16:22:00,
2013-04-18 12:28:00,50.0,34.1,30.21,NE,38,3.0,24.5,54,0.00,,,0.00,VWS V14.00,2013-04-18 16:28:00,
2013-04-18 12:34:00,50.4,34.4,30.21,ESE,114,10.8,24.5,54,0.00,,,0.00,VWS V14.00,2013-04-18 16:34:00,
2013-04-18 12:40:00,51.1,34.5,30.20,NNE,31,5.9,24.5,53,0.00,,,0.00,VWS V14.00,2013-04-18 16:40:00,
2013-04-18 12:46:00,51.4,34.4,30.20,East,91,5.5,24.5,52,0.00,,,0.00,VWS V14.00,2013-04-18 16:46:00,
2013-04-18 12:52:00,51.8,34.4,30.20,ESE,115,8.0,24.5,51,0.00,,,0.00,VWS V14.00,2013-04-18 16:52:00,
2013-04-18 12:58:00,52.4,34.4,30.20,SSE,150,6.3,24.5,50,0.00,,,0.00,VWS V14.00,2013-04-18 16:58:00,
2013-04-18 13:04:00,52.7,34.0,30.20,SE,124,4.7,24.5,49,0.00,,,0.00,VWS V14.00,2013-04-18 17:04:00,
2013-04-18 13:10:00,52.9,34.0,30.19,NE,52,0.0,24.5,48,0.00,,,0.00,VWS V14.00,2013-04-18 17:10:00,
2013-04-18 13:16:00,53.3,34.1,30.18,ESE,107,3.1,24.5,48,0.00,,,0.00,VWS V14.00,2013-04-18 17:16:00,
2013-04-18 13:22:00,53.6,33.6,30.18,NE,55,2.1,24.5,46,0.00,,,0.00,VWS V14.00,2013-04-18 17:22:00,
2013-04-18 13:28:00,54.0,33.7,30.18,SE,145,6.2,24.5,46,0.00,,,0.00,VWS V14.00,2013-04-18 17:28:00,
2013-04-18 13:34:00,54.3,33.3,30.17,ESE,110,9.2,24.5,45,0.00,,,0.00,VWS V14.00,2013-04-18 17:34:00,
2013-04-18 13:40:00,54.7,33.4,30.17,ESE,107,4.9,24.5,44,0.00,,,0.00,VWS V14.00,2013-04-18 17:40:00,
2013-04-18 13:46:00,55.4,34.0,30.17,North,10,0.0,24.5,44,0.00,,,0.00,VWS V14.00,2013-04-18 17:46:00,
2013-04-18 13:52:00,56.5,34.4,30.16,North,3,0.0,24.5,43,0.00,,,0.00,VWS V14.00,2013-04-18 17:52:00,
2013-04-18 13:58:00,57.3,34.0,30.16,East,90,4.8,24.5,41,0.00,,,0.00,VWS V14.00,2013-04-18 17:58:00,
2013-04-18 14:05:00,57.7,33.8,30.16,ESE,118,9.0,24.5,40,0.00,,,0.00,VWS V14.00,2013-04-18 18:05:00,
2013-04-18 14:11:00,57.6,33.0,30.15,ESE,117,0.0,24.5,39,0.00,,,0.00,VWS V14.00,2013-04-18 18:11:00,
2013-04-18 14:17:00,57.7,33.2,30.14,NE,49,3.4,24.5,39,0.00,,,0.00,VWS V14.00,2013-04-18 18:17:00,
2013-04-18 14:23:00,57.6,33.1,30.14,ESE,107,3.0,24.5,39,0.00,,,0.00,VWS V14.00,2013-04-18 18:23:00,
2013-04-18 14:29:00,58.1,33.7,30.14,SSE,156,6.5,24.5,40,0.00,,,0.00,VWS V14.00,2013-04-18 18:29:00,
2013-04-18 14:35:00,58.9,34.6,30.13,ESE,114,3.2,24.5,40,0.00,,,0.00,VWS V14.00,2013-04-18 18:35:00,
2013-04-18 14:41:00,60.1,34.8,30.14,NNE,20,9.9,24.5,38,0.00,,,0.00,VWS V14.00,2013-04-18 18:41:00,
2013-04-18 14:47:00,61.2,34.4,30.13,ESE,105,3.5,24.5,36,0.00,,,0.00,VWS V14.00,2013-04-18 18:47:00,
2013-04-18 14:53:00,61.8,34.2,30.13,NE,34,3.1,24.5,36,0.00,,,0.00,VWS V14.00,2013-04-18 18:53:00,
2013-04-18 14:59:00,62.8,34.4,30.13,ESE,108,3.0,24.5,34,0.00,,,0.00,VWS V14.00,2013-04-18 18:59:00,
2013-04-18 15:05:00,63.1,33.5,30.12,North,6,9.9,24.5,33,0.00,,,0.00,VWS V14.00,2013-04-18 19:05:00,
2013-04-18 15:14:00,62.6,32.8,30.12,NNW,330,2.5,24.5,33,0.00,,,0.00,VWS V14.00,2013-04-18 19:14:00,
2013-04-18 15:20:00,62.3,32.9,30.12,NNE,27,5.0,24.5,33,0.00,,,0.00,VWS V14.00,2013-04-18 19:20:00,
2013-04-18 15:26:00,62.0,33.0,30.11,NE,51,6.2,24.5,34,0.00,,,0.00,VWS V14.00,2013-04-18 19:26:00,
2013-04-18 15:32:00,61.5,32.2,30.11,NNE,25,6.2,24.5,33,0.00,,,0.00,VWS V14.00,2013-04-18 19:32:00,
2013-04-18 15:38:00,61.4,32.4,30.11,East,97,3.1,24.5,33,0.00,,,0.00,VWS V14.00,2013-04-18 19:38:00,
2013-04-18 15:45:00,61.3,32.9,30.10,East,90,3.5,24.5,34,0.00,,,0.00,VWS V14.00,2013-04-18 19:45:00,
2013-04-18 15:51:00,61.5,33.0,30.10,ESE,103,5.0,24.5,34,0.00,,,0.00,VWS V14.00,2013-04-18 19:51:00,
2013-04-18 15:57:00,61.5,32.7,30.10,NE,44,0.0,24.5,34,0.00,,,0.00,VWS V14.00,2013-04-18 19:57:00,
2013-04-18 16:03:00,61.6,32.5,30.09,ENE,59,0.0,24.5,33,0.00,,,0.00,VWS V14.00,2013-04-18 20:03:00,
2013-04-18 16:09:00,61.6,32.4,30.09,NNE,28,7.0,24.5,33,0.00,,,0.00,VWS V14.00,2013-04-18 20:09:00,
2013-04-18 16:15:00,61.7,32.5,30.09,ENE,70,3.2,24.5,33,0.00,,,0.00,VWS V14.00,2013-04-18 20:15:00,
2013-04-18 16:24:00,61.7,32.5,30.09,SE,132,5.7,24.5,33,0.00,,,0.00,VWS V14.00,2013-04-18 20:24:00,
2013-04-18 16:30:00,61.5,32.8,30.09,ESE,117,4.1,24.5,34,0.00,,,0.00,VWS V14.00,2013-04-18 20:30:00,
2013-04-18 16:40:00,61.3,32.9,30.08,East,84,4.7,24.5,34,0.00,,,0.00,VWS V14.00,2013-04-18 20:40:00,
2013-04-18 16:46:00,61.1,32.8,30.08,ESE,108,7.4,24.5,34,0.00,,,0.00,VWS V14.00,2013-04-18 20:46:00,
2013-04-18 16:52:00,60.9,32.6,30.09,NE,46,4.6,24.5,34,0.00,,,0.00,VWS V14.00,2013-04-18 20:52:00,
2013-04-18 16:58:00,60.8,32.4,30.08,NE,42,0.0,24.5,34,0.00,,,0.00,VWS V14.00,2013-04-18 20:58:00,
2013-04-18 17:04:00,60.6,32.1,30.09,NNE,31,7.0,24.5,34,0.00,,,0.00,VWS V14.00,2013-04-18 21:04:00,
2013-04-18 17:10:00,60.4,32.2,30.08,NNE,31,6.6,24.5,34,0.00,,,0.00,VWS V14.00,2013-04-18 21:10:00,
2013-04-18 17:19:00,60.1,31.9,30.08,ENE,68,3.1,24.5,34,0.00,,,0.00,VWS V14.00,2013-04-18 21:19:00,
2013-04-18 17:25:00,59.8,32.1,30.08,NNE,25,7.0,24.5,35,0.00,,,0.00,VWS V14.00,2013-04-18 21:25:00,
2013-04-18 17:31:00,59.5,31.4,30.07,East,101,0.0,24.5,34,0.00,,,0.00,VWS V14.00,2013-04-18 21:31:00,
2013-04-18 17:37:00,59.5,31.4,30.07,North,6,13.4,24.5,34,0.00,,,0.00,VWS V14.00,2013-04-18 21:37:00,
2013-04-18 17:43:00,59.4,31.1,30.07,East,82,7.8,24.5,34,0.00,,,0.00,VWS V14.00,2013-04-18 21:43:00,
2013-04-18 17:49:00,59.4,31.3,30.07,NNE,27,5.6,24.5,34,0.00,,,0.00,VWS V14.00,2013-04-18 21:49:00,
2013-04-18 17:55:00,59.1,31.1,30.07,NE,35,8.7,24.5,34,0.00,,,0.00,VWS V14.00,2013-04-18 21:55:00,
2013-04-18 18:01:00,58.9,31.0,30.07,East,96,4.7,24.5,35,0.00,,,0.00,VWS V14.00,2013-04-18 22:01:00,
2013-04-18 18:07:00,58.7,30.6,30.06,SSE,152,6.4,24.5,34,0.00,,,0.00,VWS V14.00,2013-04-18 22:07:00,
2013-04-18 18:13:00,58.3,30.7,30.06,NE,34,8.3,24.5,35,0.00,,,0.00,VWS V14.00,2013-04-18 22:13:00,
2013-04-18 18:19:00,58.0,30.5,30.05,NNE,17,0.0,24.5,35,0.00,,,0.00,VWS V14.00,2013-04-18 22:19:00,
2013-04-18 18:25:00,57.8,30.6,30.05,ENE,76,0.0,24.5,35,0.00,,,0.00,VWS V14.00,2013-04-18 22:25:00,
2013-04-18 18:31:00,57.4,30.5,30.05,East,91,0.0,24.5,36,0.00,,,0.00,VWS V14.00,2013-04-18 22:31:00,
2013-04-18 18:38:00,57.1,30.4,30.05,SSE,153,6.1,24.5,36,0.00,,,0.00,VWS V14.00,2013-04-18 22:38:00,
2013-04-18 18:44:00,56.9,30.5,30.05,East,79,0.0,24.5,36,0.00,,,0.00,VWS V14.00,2013-04-18 22:44:00,
2013-04-18 18:50:00,56.8,30.6,30.05,SSE,158,5.3,24.5,37,0.00,,,0.00,VWS V14.00,2013-04-18 22:50:00,
2013-04-18 18:56:00,56.6,30.6,30.05,SE,141,4.4,24.5,37,0.00,,,0.00,VWS V14.00,2013-04-18 22:56:00,
2013-04-18 19:02:00,56.3,30.5,30.05,SSE,162,10.9,24.5,37,0.00,,,0.00,VWS V14.00,2013-04-18 23:02:00,
2013-04-18 19:08:00,56.1,30.7,30.04,South,177,6.6,24.5,38,0.00,,,0.00,VWS V14.00,2013-04-18 23:08:00,
2013-04-18 19:14:00,55.9,30.8,30.03,SE,146,8.7,24.5,38,0.00,,,0.00,VWS V14.00,2013-04-18 23:14:00,
2013-04-18 19:20:00,55.8,30.9,30.03,SSE,155,6.5,24.5,38,0.00,,,0.00,VWS V14.00,2013-04-18 23:20:00,
2013-04-18 19:26:00,55.6,31.0,30.03,SSE,149,0.0,24.5,39,0.00,,,0.00,VWS V14.00,2013-04-18 23:26:00,
2013-04-18 19:32:00,55.6,31.4,30.03,SE,124,0.0,24.5,40,0.00,,,0.00,VWS V14.00,2013-04-18 23:32:00,
2013-04-18 19:38:00,55.5,31.4,30.03,SE,124,5.6,24.5,40,0.00,,,0.00,VWS V14.00,2013-04-18 23:38:00,
2013-04-18 19:44:00,55.3,31.5,30.03,East,87,6.2,24.5,40,0.00,,,0.00,VWS V14.00,2013-04-18 23:44:00,
2013-04-18 19:50:00,55.3,31.6,30.03,SSE,152,3.5,24.5,40,0.00,,,0.00,VWS V14.00,2013-04-18 23:50:00,
2013-04-18 19:56:00,55.2,31.6,30.02,ESE,110,6.2,24.5,40,0.00,,,0.00,VWS V14.00,2013-04-18 23:56:00,
2013-04-18 20:02:00,55.1,31.8,30.02,East,98,8.1,24.5,41,0.00,,,0.00,VWS V14.00,2013-04-19 00:02:00,
2013-04-18 20:08:00,55.1,31.8,30.02,ESE,115,7.7,24.5,41,0.00,,,0.00,VWS V14.00,2013-04-19 00:08:00,
2013-04-18 20:14:00,54.9,31.8,30.02,SSW,202,4.2,24.5,41,0.00,,,0.00,VWS V14.00,2013-04-19 00:14:00,
2013-04-18 20:20:00,54.8,31.8,30.02,SE,129,6.0,24.5,41,0.00,,,0.00,VWS V14.00,2013-04-19 00:20:00,
2013-04-18 20:26:00,54.7,31.9,30.02,ESE,115,5.0,24.5,42,0.00,,,0.00,VWS V14.00,2013-04-19 00:26:00,
2013-04-18 20:32:00,54.6,32.0,30.02,SE,146,8.8,24.5,42,0.00,,,0.00,VWS V14.00,2013-04-19 00:32:00,
2013-04-18 20:38:00,54.5,32.4,30.03,SE,141,5.2,24.5,43,0.00,,,0.00,VWS V14.00,2013-04-19 00:38:00,
2013-04-18 20:44:00,54.7,33.0,30.03,East,96,4.8,24.5,44,0.00,,,0.00,VWS V14.00,2013-04-19 00:44:00,
2013-04-18 20:50:00,54.7,33.3,30.03,SSE,156,7.3,24.5,44,0.00,,,0.00,VWS V14.00,2013-04-19 00:50:00,
2013-04-18 20:56:00,54.7,33.7,30.03,ESE,121,3.4,24.5,45,0.00,,,0.00,VWS V14.00,2013-04-19 00:56:00,
2013-04-18 21:02:00,54.7,34.5,30.03,SE,129,5.5,24.5,46,0.00,,,0.00,VWS V14.00,2013-04-19 01:02:00,
2013-04-18 21:08:00,54.7,34.7,30.03,ESE,120,4.2,24.5,47,0.00,,,0.00,VWS V14.00,2013-04-19 01:08:00,
2013-04-18 21:14:00,54.6,34.7,30.04,ESE,112,0.0,24.5,47,0.00,,,0.00,VWS V14.00,2013-04-19 01:14:00,
2013-04-18 21:20:00,54.6,34.8,30.03,SE,139,4.6,24.5,47,0.00,,,0.00,VWS V14.00,2013-04-19 01:20:00,
2013-04-18 21:26:00,54.6,35.0,30.03,NNE,25,0.0,24.5,47,0.00,,,0.00,VWS V14.00,2013-04-19 01:26:00,
2013-04-18 21:32:00,54.5,35.0,30.03,SE,132,0.0,24.5,48,0.00,,,0.00,VWS V14.00,2013-04-19 01:32:00,
2013-04-18 21:38:00,54.4,35.0,30.03,East,86,4.5,24.5,48,0.00,,,0.00,VWS V14.00,2013-04-19 01:38:00,
2013-04-18 21:44:00,54.2,34.8,30.04,ESE,103,0.0,24.5,48,0.00,,,0.00,VWS V14.00,2013-04-19 01:44:00,
2013-04-18 21:50:00,54.0,34.7,30.04,SE,134,4.7,24.5,48,0.00,,,0.00,VWS V14.00,2013-04-19 01:50:00,
2013-04-18 21:57:00,54.2,34.8,30.03,SSE,167,5.8,24.5,48,0.00,,,0.00,VWS V14.00,2013-04-19 01:57:00,
2013-04-18 22:03:00,53.8,34.4,30.03,SE,146,5.3,24.5,48,0.00,,,0.00,VWS V14.00,2013-04-19 02:03:00,
2013-04-18 22:09:00,53.8,34.5,30.03,East,101,0.0,24.5,48,0.00,,,0.00,VWS V14.00,2013-04-19 02:09:00,
2013-04-18 22:15:00,53.7,34.4,30.03,East,89,4.3,24.5,48,0.00,,,0.00,VWS V14.00,2013-04-19 02:15:00,
2013-04-18 22:21:00,53.6,34.6,30.02,SE,128,4.7,24.5,48,0.00,,,0.00,VWS V14.00,2013-04-19 02:21:00,
2013-04-18 22:27:00,53.6,34.7,30.02,ESE,108,4.8,24.5,49,0.00,,,0.00,VWS V14.00,2013-04-19 02:27:00,
2013-04-18 22:33:00,53.5,34.9,30.02,ESE,108,5.1,24.5,49,0.00,,,0.00,VWS V14.00,2013-04-19 02:33:00,
2013-04-18 22:39:00,53.4,35.0,30.02,ESE,115,4.5,24.5,50,0.00,,,0.00,VWS V14.00,2013-04-19 02:39:00,
2013-04-18 22:45:00,53.5,35.4,30.02,ESE,112,0.0,24.5,50,0.00,,,0.00,VWS V14.00,2013-04-19 02:45:00,
2013-04-18 22:51:00,53.4,35.7,30.02,SE,138,4.5,24.5,51,0.00,,,0.00,VWS V14.00,2013-04-19 02:51:00,
2013-04-18 22:57:00,53.5,36.3,30.02,ESE,110,5.8,24.5,52,0.00,,,0.00,VWS V14.00,2013-04-19 02:57:00,
2013-04-18 23:03:00,53.6,37.0,30.02,ESE,120,7.7,24.5,53,0.00,,,0.00,VWS V14.00,2013-04-19 03:03:00,
2013-04-18 23:09:00,53.9,37.9,30.01,SSE,156,7.8,24.5,55,0.00,,,0.00,VWS V14.00,2013-04-19 03:09:00,
2013-04-18 23:15:00,53.6,38.1,30.01,SE,128,4.8,24.5,56,0.00,,,0.00,VWS V14.00,2013-04-19 03:15:00,
2013-04-18 23:21:00,53.8,38.8,30.00,SSE,159,4.6,24.5,57,0.00,,,0.00,VWS V14.00,2013-04-19 03:21:00,
2013-04-18 23:27:00,54.0,39.4,30.00,SE,128,7.0,24.5,58,0.00,,,0.00,VWS V14.00,2013-04-19 03:27:00,
2013-04-18 23:33:00,54.1,39.9,29.99,ESE,110,6.6,24.5,58,0.00,,,0.00,VWS V14.00,2013-04-19 03:33:00,
2013-04-18 23:39:00,54.1,40.3,29.98,South,177,7.6,24.5,59,0.00,,,0.00,VWS V14.00,2013-04-19 03:39:00,
2013-04-18 23:45:00,54.1,40.9,29.98,East,98,5.4,24.5,61,0.00,,,0.00,VWS V14.00,2013-04-19 03:45:00,
2013-04-18 23:50:00,41.8,25.7,30.31,ESE,121,0.0,17.3,52,0.00,,,0.00,VWS V14.00,2013-04-19 03:50:00,
2013-04-18 23:51:00,54.4,41.7,29.98,SSW,198,5.3,9.3,62,0.00,,,0.00,VWS V14.00,2013-04-19 03:51:00,
2013-04-18 23:57:00,54.5,42.3,29.98,East,94,2.8,2.8,63,0.00,,,0.00,VWS V14.00,2013-04-19 03:57:00,